User: anonymous   Login
Location: Unspecified
(0.0000°N, 0.0000°E)
Time: 00:54:25
(UTC+00:00)
Language:

STARLINK-11470 [DTC] - Orbit

View from above orbital plane
View from above orbital plane
View from above satellite
View from above satellite

Ground track
Ground track

The orbit is defined by the following mean orbital elements,

1 62062U          26145.15894891 +.00000000 +00000-0 +14453-2 0 00001
2 62062  53.1571  54.3071 0001014  83.7108 276.4026 15.69768665    09
Epoch (UTC): 25 May 2026 03:48:53
Eccentricity: 0.0001014
inclination: 53.1571°
perigee height: 359 km
apogee height: 360 km
right ascension of ascending node: 54.3071°
argument of perigee: 83.7108°
revolutions per day: 15.69768665
mean anomaly at epoch: 276.4026°

The dashed part of the orbit path shows where the satellite is in the earth's shadow,  

DLR